PY2UEP-1 Weather Reports


time (UTC)temp
F
wind
direction
speed
knots
gust
knots
rain 1hr
in
rain 24hr
in
rain mn
in
humidity
%
barometer
mb
20260504202546 79 122 0.9 1.7 0.00 0.00 0.00 63 1018.6
20260504202046 79 111 0.9 1.7 0.00 0.00 0.00 63 1018.8
20260504201546 80 95 0.9 1.7 0.00 0.00 0.00 62 1018.8
20260504201046 80 114 0.9 1.7 0.00 0.00 0.00 60 1018.6
20260504200546 81 116 0.9 1.7 0.00 0.00 0.00 59 1018.6
20260504200046 81 118 1.7 3.5 0.00 0.00 0.00 58 1018.6
20260504195546 81 111 1.7 4.3 0.00 0.00 0.00 58 1018.8
20260504195046 81 103 2.6 3.5 0.00 0.00 0.00 57 1018.8
20260504194546 81 104 2.6 3.5 0.00 0.00 0.00 57 1018.8
20260504194046 81 102 2.6 3.5 0.00 0.00 0.00 58 1018.8
20260504193546 81 111 1.7 3.5 0.00 0.00 0.00 58 1018.6
20260504193046 82 90 1.7 2.6 0.00 0.00 0.00 55 1018.6
20260504192546 82 75 1.7 3.5 0.00 0.00 0.00 52 1018.6
20260504192046 83 84 0.9 1.7 0.00 0.00 0.00 50 1018.6
20260504191546 83 85 0.9 2.6 0.00 0.00 0.00 51 1018.6
20260504191046 83 92 1.7 4.3 0.00 0.00 0.00 50 1018.6
20260504190546 83 103 2.6 5.2 0.00 0.00 0.00 51 1018.6
20260504190046 83 80 2.6 5.2 0.00 0.00 0.00 51 1018.6
20260504185545 83 55 2.6 4.3 0.00 0.00 0.00 51 1018.5
20260504185046 83 58 2.6 6.1 0.00 0.00 0.00 50 1018.6
20260504184545 84 79 2.6 6.1 0.00 0.00 0.00 49 1018.6
20260504184045 85 19 1.7 3.5 0.00 0.00 0.00 48 1018.6
20260504183546 84 2 0.9 4.3 0.00 0.00 0.00 50 1018.5
20260504183046 83 122 1.7 3.5 0.00 0.00 0.00 49 1018.6
20260504182546 83 18 1.7 3.5 0.00 0.00 0.00 49 1018.6
20260504182046 84 26 1.7 4.3 0.00 0.00 0.00 48 1018.6
20260504181545 83 353 2.6 6.1 0.00 0.00 0.00 50 1018.8
20260504181045 82 15 4.3 7.8 0.00 0.00 0.00 52 1018.8
20260504180546 83 46 3.5 7.8 0.00 0.00 0.00 51 1018.8
20260504180046 83 64 2.6 6.1 0.00 0.00 0.00 51 1018.8
20260504175545 83 61 2.6 5.2 0.00 0.00 0.00 51 1018.8
20260504175046 83 46 2.6 4.3 0.00 0.00 0.00 51 1019.0
20260504174545 83 27 4.3 7.8 0.00 0.00 0.00 51 1019.1
20260504174045 83 46 3.5 6.1 0.00 0.00 0.00 52 1019.1
20260504173546 83 57 3.5 7.0 0.00 0.00 0.00 51 1019.1
20260504173045 83 15 2.6 6.1 0.00 0.00 0.00 52 1019.1
20260504172545 83 30 2.6 6.1 0.00 0.00 0.00 52 1019.2
20260504172046 83 13 1.7 4.3 0.00 0.00 0.00 52 1019.2
20260504171547 82 100 1.7 4.3 0.00 0.00 0.00 53 1019.3
20260504171045 83 343 1.7 4.3 0.00 0.00 0.00 51 1019.4
20260504170545 83 332 2.6 7.0 0.00 0.00 0.00 51 1019.4
20260504151045 78 28 4.3 7.8 0.00 0.00 0.00 60 1020.8
20260504150545 77 20 3.5 9.6 0.00 0.00 0.00 59 1020.9
20260504141045 75 57 4.3 8.7 0.00 0.00 0.00 64 1021.5
20260504140545 75 68 4.3 7.8 0.00 0.00 0.00 64 1021.5
20260504130545 71 83 7.0 10.4 0.00 0.00 0.00 68 1022.2
20260504110545 62 104 6.1 11.3 0.00 0.00 0.00 82 1021.5
20260504100545 58 109 6.1 13.0 0.00 0.00 0.00 90 1020.6
20260504081545 58 104 6.1 11.3 0.00 0.00 0.00 89 1019.4
20260504081045 59 103 7.0 13.0 0.00 0.00 0.00 89 1019.4
20260504080545 59 105 7.8 12.2 0.00 0.00 0.00 89 1019.4
20260504050544 60 122 6.1 13.9 0.00 0.00 0.00 84 1020.3
20260504045544 61 119 6.1 12.2 0.00 0.00 0.00 83 1020.3
20260504045044 61 124 6.1 13.0 0.00 0.00 0.00 83 1020.3
20260504044544 61 124 6.1 13.0 0.00 0.00 0.00 83 1020.4
20260504044044 61 121 7.0 13.9 0.00 0.00 0.00 83 1020.4
20260504043544 61 118 7.0 16.5 0.00 0.00 0.00 83 1020.4
20260504043046 61 120 6.1 15.6 0.00 0.00 0.00 83 1020.4
20260504042544 61 125 6.1 13.9 0.00 0.00 0.00 83 1020.4
20260504042044 61 118 6.1 12.2 0.00 0.00 0.00 83 1020.4
20260504041544 61 123 6.1 14.8 0.00 0.00 0.00 82 1020.5
20260504041044 61 125 6.1 15.6 0.00 0.00 0.00 82 1020.5
20260504040544 61 122 6.1 12.2 0.00 0.00 0.00 83 1020.5
20260504040044 61 124 7.0 13.9 0.00 0.00 0.00 82 1020.6
20260504035544 61 125 7.0 17.4 0.00 0.00 0.00 82 1020.5
20260504035044 61 119 7.0 17.4 0.00 0.00 0.00 82 1020.5
20260504034544 61 121 7.0 21.7 0.00 0.00 0.00 82 1020.6
20260504034044 61 125 6.1 15.6 0.00 0.00 0.00 82 1020.6
20260504033544 61 122 6.1 12.2 0.00 0.00 0.00 82 1020.6
20260504033044 61 121 7.8 14.8 0.00 0.00 0.00 82 1020.6
20260504032544 61 120 7.0 14.8 0.00 0.00 0.00 82 1020.7
20260504032045 61 123 7.8 17.4 0.00 0.00 0.00 82 1020.7
20260504031544 61 124 5.2 14.8 0.00 0.00 0.00 82 1020.6
20260504031044 61 127 7.0 16.5 0.00 0.00 0.00 82 1020.8
20260504030544 61 123 6.1 15.6 0.00 0.00 0.00 82 1020.8
20260504030044 62 121 7.8 20.0 0.00 0.00 0.00 82 1020.7
20260504025544 62 118 7.0 16.5 0.00 0.00 0.00 82 1020.7
20260504025044 62 120 6.1 12.2 0.00 0.00 0.00 82 1020.8
20260504024544 62 122 6.1 13.0 0.00 0.00 0.00 82 1020.7
20260504024044 62 121 7.0 17.4 0.00 0.00 0.00 81 1020.7
20260504023544 62 118 7.0 18.2 0.00 0.00 0.00 81 1020.7
20260504023044 62 122 8.7 17.4 0.00 0.00 0.00 81 1020.7
20260504022544 62 122 7.0 15.6 0.00 0.00 0.00 81 1020.7
20260504022044 62 121 7.0 16.5 0.00 0.00 0.00 81 1020.8
20260504021544 62 123 7.0 17.4 0.00 0.00 0.00 80 1020.8
20260504021044 62 120 8.7 20.0 0.00 0.00 0.00 80 1020.7
20260504020544 62 118 7.0 14.8 0.00 0.00 0.00 80 1020.7
20260504020044 63 118 7.8 19.1 0.00 0.00 0.00 80 1020.8
20260504015544 62 122 7.0 17.4 0.00 0.00 0.00 80 1020.7
20260504015044 63 121 7.0 13.0 0.00 0.00 0.00 79 1020.7
20260504014544 63 122 7.0 15.6 0.00 0.00 0.00 79 1020.8
20260504014044 63 121 7.0 16.5 0.00 0.00 0.00 79 1020.7
20260504013544 63 120 8.7 18.2 0.00 0.00 0.00 78 1020.8
20260504013044 63 123 7.8 13.9 0.00 0.00 0.00 78 1020.8
20260504012544 63 118 7.0 13.0 0.00 0.00 0.00 78 1020.9
20260504012044 63 124 7.0 14.8 0.00 0.00 0.00 78 1020.8
20260504011544 64 119 7.8 15.6 0.00 0.00 0.00 77 1020.8
20260504011044 64 115 7.8 17.4 0.00 0.00 0.00 77 1020.9
20260504010544 64 118 7.8 15.6 0.00 0.00 0.00 77 1020.8
20260504010044 64 117 8.7 18.2 0.00 0.00 0.00 77 1020.9
20260504005544 64 118 7.0 19.1 0.00 0.00 0.00 77 1020.9
20260504005044 64 121 7.8 15.6 0.00 0.00 0.00 78 1020.9
20260504004544 64 118 7.0 18.2 0.00 0.00 0.00 78 1020.9
20260504004044 64 122 7.0 15.6 0.00 0.00 0.00 78 1020.9
20260504003544 64 121 7.0 15.6 0.00 0.00 0.00 79 1020.9
20260504003044 64 120 7.8 14.8 0.00 0.00 0.00 79 1020.9
20260504002544 64 122 5.2 12.2 0.00 0.00 0.00 80 1021.0
20260504002044 64 122 5.2 11.3 0.00 0.00 0.00 79 1021.0
20260504001544 64 128 6.1 14.8 0.00 0.00 0.00 80 1021.0
20260504001044 64 128 5.2 10.4 0.00 0.00 0.00 80 1021.0
20260504000544 65 132 5.2 11.3 0.00 0.00 0.00 79 1021.1
20260504000044 65 124 5.2 10.4 0.00 0.00 0.00 79 1021.0
20260503235544 65 122 5.2 12.2 0.00 0.00 0.00 78 1021.0
20260503235044 65 120 7.0 14.8 0.00 0.00 0.00 78 1020.8
20260503234544 65 121 7.0 15.6 0.00 0.00 0.00 78 1020.8
20260503234044 65 124 5.2 12.2 0.00 0.00 0.00 78 1020.7
20260503233544 65 124 5.2 12.2 0.00 0.00 0.00 78 1020.7
20260503233044 65 122 6.1 13.0 0.00 0.00 0.00 78 1020.7
20260503232544 66 125 5.2 10.4 0.00 0.00 0.00 78 1020.6
20260503232044 66 119 7.0 13.9 0.00 0.00 0.00 78 1020.6
20260503231544 66 125 5.2 13.9 0.00 0.00 0.00 78 1020.5
20260503231044 66 124 6.1 13.0 0.00 0.00 0.00 78 1020.4
20260503230544 66 123 5.2 13.9 0.00 0.00 0.00 78 1020.4
20260503230044 66 130 6.1 13.9 0.00 0.00 0.00 78 1020.3
20260503225544 66 120 6.1 11.3 0.00 0.00 0.00 77 1020.3
20260503225044 66 125 6.1 11.3 0.00 0.00 0.00 77 1020.2
20260503224544 66 126 4.3 12.2 0.00 0.00 0.00 77 1020.2
20260503224044 67 125 5.2 9.6 0.00 0.00 0.00 77 1020.2
20260503223544 67 127 5.2 9.6 0.00 0.00 0.00 76 1020.2
20260503223044 67 125 4.3 8.7 0.00 0.00 0.00 76 1020.2
20260503222544 67 126 5.2 12.2 0.00 0.00 0.00 76 1019.9
20260503222044 67 121 5.2 11.3 0.00 0.00 0.00 75 1019.9
20260503221544 67 128 5.2 9.6 0.00 0.00 0.00 75 1019.9
20260503221044 67 126 5.2 13.0 0.00 0.00 0.00 74 1019.9
20260503220544 68 119 5.2 13.0 0.00 0.00 0.00 74 1019.9
20260503220044 68 132 4.3 11.3 0.00 0.00 0.00 74 1019.7
20260503215544 68 127 5.2 12.2 0.00 0.00 0.00 74 1019.6
20260503215044 68 117 6.1 13.9 0.00 0.00 0.00 73 1019.6
20260503214544 68 123 5.2 11.3 0.00 0.00 0.00 74 1019.6
20260503214044 69 119 5.2 11.3 0.00 0.00 0.00 74 1019.7
20260503213544 69 113 6.1 12.2 0.00 0.00 0.00 74 1019.6
20260503213044 69 112 6.1 12.2 0.00 0.00 0.00 73 1019.6
20260503212544 69 113 5.2 12.2 0.00 0.00 0.00 74 1019.6
20260503212044 69 122 5.2 10.4 0.00 0.00 0.00 73 1019.7
20260503211544 70 114 6.1 13.9 0.00 0.00 0.00 73 1019.6
20260503211044 70 114 7.0 15.6 0.00 0.00 0.00 73 1019.6
20260503210544 70 106 5.2 11.3 0.00 0.00 0.00 73 1019.6
20260503210044 70 107 6.1 12.2 0.00 0.00 0.00 72 1019.5
20260503205544 71 113 4.3 10.4 0.00 0.00 0.00 72 1019.5
20260503205044 71 115 5.2 12.2 0.00 0.00 0.00 71 1019.4
20260503204544 71 115 6.1 13.0 0.00 0.00 0.00 70 1019.4
20260503204044 71 109 6.1 13.9 0.00 0.00 0.00 70 1019.3
20260503203544 72 111 7.0 15.6 0.00 0.00 0.00 69 1019.3
20260503203044 72 112 7.0 13.9 0.00 0.00 0.00 69 1019.3